This is the latest recevied weather packets stored in our database for station/object KTPA. If no packets are shown the sender has not sent any weather packets the latest 10 day(s).
| Time | Temp. | Humidity | Pressure | Rain* | Wind** | Luminosity | Snow |
|---|---|---|---|---|---|---|---|
| 1788126215 | 25° C | 94% | 1016.9 hPa | - | - | - | - |
| 1788125617 | 25° C | 94% | 1016.9 hPa | - | - | - | - |
| 1788125016 | 25° C | 88% | 1017.3 hPa | - | - | - | - |
| 1788124419 | 27.78° C | 69% | 1016.6 hPa | - | - | - | - |
| 1788123817 | 27.78° C | 69% | 1016.6 hPa | - | - | - | - |
| 1788123217 | 32.78° C | 59% | 1015.9 hPa | - | - | - | - |
| 1788122619 | 32.78° C | 59% | 1015.9 hPa | - | - | - | - |
| 1788122021 | 32.78° C | 59% | 1015.9 hPa | - | - | - | - |
| 1788121420 | 32.78° C | 59% | 1015.9 hPa | - | - | - | - |
| 1788120819 | 32.78° C | 59% | 1015.9 hPa | - | - | - | - |
| 1788120220 | 32.78° C | 59% | 1015.9 hPa | - | - | - | - |
| 1788119619 | 31.67° C | 62% | 1015.9 hPa | - | - | - | - |
| 1788119015 | 31.67° C | 62% | 1015.9 hPa | - | - | - | - |
| 1788118414 | 31.67° C | 62% | 1016.6 hPa | - | - | - | - |
| 1788117818 | 31.67° C | 62% | 1016.6 hPa | - | - | - | - |
| 1788117216 | 31.67° C | 62% | 1016.6 hPa | - | - | - | - |
| 1788116618 | 31.67° C | 62% | 1016.6 hPa | - | - | - | - |
| 1788116019 | 31.67° C | 59% | 1017.3 hPa | - | - | - | - |
| 1788115416 | 31.67° C | 59% | 1017.3 hPa | - | - | - | - |
| 1788114819 | 31.67° C | 59% | 1017.3 hPa | - | - | - | - |
| 1788114217 | 31.67° C | 59% | 1017.3 hPa | - | - | - | - |
| 1788113617 | 31.67° C | 59% | 1017.3 hPa | - | - | - | - |
| 1788113019 | 31.67° C | 59% | 1017.3 hPa | - | - | - | - |
| 1788112420 | 30.56° C | 62% | 1017.9 hPa | - | - | - | - |
| 1788111821 | 30.56° C | 62% | 1017.9 hPa | - | - | - | - |
* Rain since midnight (hover to see other rain measurements)
** Current wind speed in m/s (hover to see current wind gust speed)